RH
54 51 79 74 69 69 71 75 75 77 75 75 77 75 75 78 77 76 72 68 66 66 64 65 66 64 67 69 73 78 80 81 81 80 85 84 78 74 74 76 75 68 79
54 49 77 74 68 70 73 74 77 77 78 76 74 72 75 71 70 77 75 70 67 64 63 65 66 68 69 69 70 73 77 80 80 81 83 83 83 76 72 74 79 74 80
52 49 46 74 75 69 71 74 78 76 76 75 73 76 77 71 66 68 69 66 65 65 66 66 67 70 72 72 73 71 71 75 77 78 76 65 60 75 70 76 78 79 80
49 46 48 72 75 73 72 73 77 77 76 76 77 74 75 72 68 68 68 69 69 68 70 70 72 73 72 73 78 77 72 71 72 73 60 55 51 72 68 70 72 72 78
53 55 70 73 70 72 73 72 70 70 73 74 75 74 76 74 69 77 76 73 73 73 73 71 72 73 72 74 77 79 74 72 76 62 46 61 64 66 70 68 69 68 74
52 50 71 77 73 71 73 74 71 68 69 72 72 69 70 69 72 73 78 77 75 72 70 70 71 72 72 72 74 75 75 74 79 39 42 49 59 70 72 73 72 72 75
51 53 59 77 84 84 80 68 71 73 71 74 73 70 67 65 69 76 79 78 76 72 70 69 70 70 70 70 69 68 67 71 44 42 42 50 60 69 69 72 75 79 78
57 59 52 72 83 85 84 81 73 74 75 71 72 73 70 76 79 78 78 78 77 74 73 73 72 72 71 68 68 68 67 72 41 38 43 51 77 68 72 70 71 73 74
60 56 55 59 65 84 87 84 84 80 76 73 74 77 84 81 82 79 80 79 77 77 74 74 74 74 76 75 72 71 69 70 42 36 31 46 81 66 68 72 70 69 69
58 58 56 58 56 57 64 89 89 89 90 91 87 88 92 89 87 84 86 84 79 79 80 79 77 76 76 79 81 79 78 75 36 41 41 56 71 62 68 69 71 72 70
59 57 58 64 60 60 60 70 86 91 92 91 93 96 94 78 69 78 93 91 88 84 82 80 80 81 86 89 87 86 87 50 34 36 42 79 68 65 62 66 70 68 69
56 53 53 62 63 63 64 59 59 73 78 84 89 86 95 91 84 83 91 94 92 90 89 85 86 86 86 70 71 83 62 63 53 42 55 81 71 64 64 65 66 69 75
56 54 54 56 57 57 65 74 68 61 70 79 87 93 93 95 93 96 93 87 83 89 66 79 75 75 70 70 70 69 67 68 78 79 80 84 79 70 67 68 68 68 70
59 56 53 47 51 55 52 52 54 58 68 86 81 80 87 90 93 90 84 76 68 63 60 54 50 55 57 54 56 55 54 55 48 58 83 88 79 72 69 69 73 74 69
53 51 50 46 50 50 47 49 48 50 50 57 69 71 84 88 86 87 86 88 88 76 62 62 52 44 42 43 44 46 48 49 48 50 58 91 89 80 75 69 68 72 72
45 45 47 46 48 46 47 48 46 46 50 52 53 54 62 72 80 84 77 70 62 57 55 52 50 50 48 48 47 48 47 49 49 51 50 62 83 85 82 77 76 73 74
39 39 42 48 48 46 46 45 47 46 43 45 46 48 50 54 64 77 84 83 77 64 52 48 47 48 48 42 43 45 48 44 50 50 57 57 62 83 80 76 76 76 76
36 38 39 40 48 47 46 45 44 44 42 42 41 43 44 46 48 49 53 59 59 57 56 55 51 50 48 46 46 44 44 45 42 41 45 45 55 54 77 74 73 71 71
33 36 41 43 47 48 47 46 46 47 44 42 41 45 47 46 43 44 48 53 53 54 56 56 58 58 52 50 46 42 46 46 44 42 46 52 52 60 58 76 73 73 72
34 36 40 42 45 47 49 48 49 50 46 44 44 44 44 47 46 46 48 49 46 50 50 53 55 60 60 56 44 40 50 51 53 56 55 55 57 57 60 61 66 69 75
38 40 41 43 46 48 50 48 48 49 52 50 51 48 48 47 51 48 48 49 48 47 47 45 51 54 58 59 64 57 55 50 52 54 53 55 62 60 60 60 62 64 71
44 45 44 43 46 46 46 45 43 48 48 53 55 54 51 52 53 50 52 53 52 50 49 49 52 51 53 56 59 63 65 61 54 52 54 53 57 62 61 57 56 54 60
48 50 45 44 46 45 46 51 50 54 56 57 59 60 58 54 58 58 57 53 56 55 60 58 58 56 56 56 55 62 59 61 60 59 59 56 54 55 53 57 58 57 56
49 50 47 46 48 47 48 54 56 54 55 53 58 60 63 58 62 60 61 59 61 60 61 58 57 60 59 58 57 52 56 60 62 62 59 60 54 49 53 56 60 60 60
49 55 50 48 50 48 53 49 52 49 50 55 58 64 63 63 61 61 60 61 61 63 64 63 64 62 63 64 66 61 58 61 60 68 64 59 55 55 55 56 55 59 59
53 57 54 51 52 50 52 52 52 53 56 60 62 64 62 62 64 62 61 62 62 61 63 64 64 65 65 62 63 65 65 64 61 66 69 62 65 60 56 54 57 59 61
Wind_Speed
4 10 5 2 1 4 3 3 5 6 6 6 9 10 9 9 7 7 8 9 7 8 10 10 9 10 10 10 10 11 11 11 10 10 10 9 8 7 5 4 4 11 12
5 5 6 2 1 4 6 4 4 5 7 9 9 10 9 8 7 9 9 9 8 7 9 10 10 11 10 9 8 9 10 10 7 5 7 11 9 7 5 2 3 11 12
5 6 3 4 4 2 2 5 6 6 5 7 8 9 9 9 8 7 7 8 7 8 9 9 9 10 9 9 8 7 8 7 4 3 3 1 9 8 6 6 6 8 12
5 4 2 5 2 2 1 2 4 5 6 5 7 6 8 9 9 8 9 10 9 9 9 8 9 8 9 9 9 8 6 5 3 7 2 7 9 9 7 6 4 5 10
5 2 10 6 3 4 3 5 4 3 4 4 4 5 6 9 9 9 9 9 10 9 8 8 7 8 8 9 9 9 6 1 6 6 8 5 4 9 9 7 6 4 6
2 7 10 11 7 4 1 4 5 1 3 6 5 3 4 4 7 8 10 9 8 8 8 8 7 7 7 8 8 8 5 5 10 6 5 3 8 7 8 8 8 9 8
3 6 9 13 13 11 10 2 3 4 2 6 7 8 4 3 4 6 8 8 7 7 7 7 7 6 6 6 7 6 5 8 6 4 4 9 8 3 5 7 6 7 9
4 4 5 10 10 9 8 10 5 3 5 2 3 7 9 6 6 5 6 7 7 7 7 6 6 5 5 5 5 4 3 6 5 3 3 8 8 5 5 5 6 6 6
3 4 4 2 3 5 7 6 9 8 5 4 3 3 8 7 6 5 4 5 5 5 6 6 6 6 5 4 3 2 2 7 7 3 1 6 9 8 3 5 4 5 5
5 4 3 3 1 2 5 5 7 9 11 9 8 3 2 7 7 5 5 5 5 5 5 5 5 5 5 4 3 1 3 9 5 2 2 5 4 6 6 2 1 2 4
4 4 3 2 2 2 0 4 4 8 8 5 6 6 3 2 3 4 7 5 3 5 6 6 6 5 5 4 4 4 6 6 2 1 4 6 3 2 5 5 3 0 2
5 6 3 3 2 1 2 2 1 4 4 2 3 1 3 5 5 7 5 5 2 4 3 3 4 4 6 3 3 6 5 5 1 2 6 6 4 1 2 3 3 2 2
4 2 3 3 2 1 5 1 1 2 1 2 2 2 4 2 1 3 0 3 4 5 4 6 4 4 3 1 2 3 4 3 1 1 6 5 3 3 2 1 2 2 2
4 2 4 4 2 4 2 2 3 2 3 2 3 1 3 2 2 1 2 2 0 3 3 3 2 2 2 1 3 2 3 3 3 2 5 7 4 4 3 2 4 2 1
5 4 4 4 4 3 4 3 4 4 3 4 4 4 2 2 1 1 2 3 3 1 2 2 3 1 1 0 1 1 3 3 4 3 2 7 4 5 5 4 0 3 3
7 6 5 4 5 4 5 5 4 4 5 4 4 5 6 4 3 3 1 1 2 3 3 3 4 3 1 2 1 3 2 2 3 4 4 2 3 3 4 4 4 4 1
8 6 6 6 6 5 6 5 4 4 3 4 4 5 5 5 4 5 3 1 3 3 3 3 2 3 3 2 3 2 2 2 3 2 3 3 3 3 3 5 5 5 5
9 9 7 6 7 6 6 4 4 3 4 3 3 4 4 4 3 2 2 2 2 3 3 2 3 3 3 3 3 3 3 2 3 3 4 3 2 1 4 6 5 5 6
10 9 9 8 9 8 7 5 5 4 3 3 3 4 4 4 2 2 2 3 1 2 1 2 2 4 3 3 4 3 2 3 2 2 2 2 3 2 2 6 2 0 2
10 10 10 8 8 7 6 5 4 4 3 3 3 3 3 3 3 2 2 2 0 1 1 0 0 1 3 4 5 2 1 0 0 2 3 2 2 1 2 3 1 3 2
11 10 11 11 11 8 5 5 5 4 4 3 3 4 4 3 4 3 2 2 1 1 2 2 0 1 1 3 4 2 1 1 2 3 3 3 4 4 3 3 3 3 2
12 12 12 11 11 8 6 4 2 4 3 3 3 4 4 5 4 4 3 3 3 2 3 4 3 0 1 4 2 1 3 3 1 1 2 3 4 3 4 4 4 4 3
11 11 11 10 9 8 7 5 4 4 4 4 4 3 4 4 5 5 5 4 3 3 3 4 4 5 3 3 5 3 2 1 1 2 1 2 3 2 3 4 3 3 4
11 10 10 10 10 8 9 8 9 6 5 4 4 4 4 3 5 5 6 4 3 4 4 4 4 4 4 3 0 3 3 4 3 2 4 3 4 5 7 4 3 2 2
9 9 9 9 10 8 9 7 6 5 4 5 5 7 5 3 4 4 4 4 4 3 4 4 4 4 3 3 3 3 2 2 2 1 3 0 3 5 5 4 4 3 1
7 7 7 9 10 10 9 8 8 7 7 6 7 6 6 4 4 3 4 4 3 3 3 3 3 3 3 3 2 2 3 3 4 2 2 5 6 4 6 6 3 3 1
Wind_Direction
38 108 99 60 108 138 165 171 150 147 141 158 138 132 135 123 118 146 129 115 102 92 102 97 88 84 74 67 62 63 65 65 65 67 70 61 65 72 86 110 155 109 116
346 24 105 58 55 149 155 162 152 147 146 143 144 147 136 123 117 114 122 109 103 102 92 92 95 90 79 67 62 66 65 61 59 69 104 98 66 61 72 88 104 124 125
56 67 128 59 34 61 171 154 161 164 169 159 162 147 148 129 128 131 122 117 116 109 96 95 92 87 78 68 63 68 70 60 33 319 221 177 79 56 64 63 100 126 124
61 92 93 91 95 97 170 195 181 175 186 181 168 169 153 136 134 136 141 121 110 103 97 94 91 83 71 65 68 69 81 61 323 290 259 24 86 53 60 71 100 133 119
92 89 73 65 94 130 160 158 172 212 226 198 188 172 154 149 138 117 123 113 113 112 107 102 97 89 77 69 70 70 80 24 287 303 57 40 36 60 58 71 99 109 110
77 82 68 46 36 49 133 175 134 141 240 213 165 177 157 171 140 125 118 115 118 121 119 115 106 97 89 82 76 66 48 328 307 66 99 94 63 53 60 73 78 81 97
100 110 69 58 60 57 54 20 163 141 244 236 174 152 158 167 187 125 131 130 132 129 125 122 119 112 100 90 84 73 28 336 359 59 70 60 44 82 83 80 86 88 89
113 112 106 81 48 54 54 69 71 80 80 59 146 144 130 131 143 158 157 152 156 152 150 138 129 123 113 102 89 69 25 322 275 88 66 80 11 67 112 102 96 96 97
132 148 128 36 85 99 64 87 91 61 62 19 46 132 119 120 132 163 165 171 171 170 162 155 155 149 135 120 105 92 338 303 294 69 78 90 17 49 104 131 129 124 123
146 145 92 77 178 112 110 63 79 72 62 26 11 354 101 118 126 119 141 163 183 179 171 170 174 164 154 149 147 181 268 275 257 152 105 68 30 66 60 87 175 175 161
175 174 157 143 126 166 56 121 116 88 79 63 31 15 248 74 138 147 52 100 144 175 178 177 180 178 165 157 181 222 261 247 176 162 96 72 41 38 78 75 72 273 239
200 160 140 145 96 121 53 104 181 67 82 65 126 85 23 14 58 60 52 345 106 112 96 147 149 175 208 233 197 223 244 299 283 172 85 73 33 3 116 101 93 88 78
201 146 93 87 42 307 114 133 268 147 54 97 35 106 116 89 34 80 149 208 195 232 190 195 183 240 279 259 277 284 304 332 341 315 74 67 21 10 273 207 125 106 86
193 155 99 96 93 58 80 93 98 136 124 93 80 126 127 138 109 145 251 339 183 300 287 261 193 125 113 39 3 321 329 327 323 102 92 55 23 26 339 244 235 231 152
198 157 129 121 122 97 78 84 85 85 80 103 71 66 358 129 68 114 16 358 308 294 277 301 297 205 232 222 218 323 340 356 328 345 23 84 25 43 47 52 5 206 228
192 174 143 133 109 108 93 78 78 92 102 90 83 92 89 85 77 53 22 346 316 350 345 327 344 317 322 293 312 337 327 333 344 345 345 137 115 45 42 36 44 38 326
187 165 156 138 140 135 121 114 97 88 93 95 102 95 97 115 138 157 161 281 347 1 329 301 278 300 285 291 264 260 285 296 276 239 226 309 157 153 92 56 33 13 354
184 173 156 146 152 142 127 119 112 114 111 104 97 91 92 103 108 125 129 101 53 10 332 326 332 289 308 318 298 296 275 267 296 312 320 293 258 290 144 96 48 18 355
185 178 164 161 157 152 148 138 123 124 106 101 100 98 81 75 68 112 112 111 114 102 52 341 13 335 324 319 296 297 311 306 313 286 274 294 294 270 320 119 110 295 24
189 175 168 166 162 160 149 146 138 126 120 110 96 95 99 85 72 85 83 66 128 136 111 205 125 41 11 337 295 301 15 30 74 46 40 60 41 338 313 14 283 138 104
192 180 174 170 172 166 174 169 160 154 132 114 88 84 80 71 61 57 74 87 16 51 70 348 264 6 69 350 284 137 108 107 97 83 62 43 43 58 58 30 22 347 137
190 185 183 183 176 182 174 171 178 142 131 102 98 88 84 92 63 83 62 60 33 84 62 42 359 238 55 30 348 301 181 171 137 69 62 49 62 56 36 28 360 10 3
200 194 188 183 183 180 170 144 143 115 135 149 139 123 81 86 81 79 67 64 50 44 51 47 29 6 20 45 32 340 221 139 329 129 196 62 25 3 12 355 357 5 351
197 195 191 180 183 180 169 180 177 183 178 166 146 123 118 84 87 74 75 68 59 52 38 41 29 14 343 29 141 24 19 6 325 193 166 178 45 344 359 311 311 314 0
187 190 192 185 183 184 188 200 189 196 146 150 148 146 134 136 96 88 86 83 75 74 60 31 17 24 23 9 9 3 3 27 357 323 317 67 28 19 288 330 305 292 312
169 191 199 194 191 185 197 203 203 186 168 166 164 164 155 171 136 100 115 98 86 79 66 46 26 23 20 16 7 15 359 353 355 343 318 333 323 321 311 287 293 277 114